Moses Lake, WA

5:54 AM PDT on April 29, 2017 (GMT -0700)
Grant County International

Weather History for KMWH - August, 2014

Change the Weather History Date:

Monday, August 4, 2014

  Actual Average Record
Temperature  
Mean Temperature 84 °F 74 °F  
Max Temperature 103 °F 91 °F 106 °F (1998)
Min Temperature 64 °F 57 °F 49 °F (1980)
Degree Days  
Heating Degree Days 0 0  
Month to date heating degree days 0 0  
Since 1 June heating degree days 24 63  
Since 1 July heating degree days 0 8  
Cooling Degree Days 19 9  
Month to date cooling degree days 71 36  
Year to date cooling degree days 630 390  
Since 1 June cooling degree days 595 365  
Growing Degree Days 32 (Base 50)    
Moisture  
Dew Point 42 °F    
Average Humidity 33    
Maximum Humidity 56    
Minimum Humidity 10    
Precipitation  
Precipitation 0.00 in 0.00 in 0.00 in (2017)
Month to date precipitation 0.00 0.02  
Year to date precipitation 3.29 5.20  
Sea Level Pressure  
Sea Level Pressure 29.85 in    
Wind  
Wind Speed 7 mph (NNW)    
Max Wind Speed 13 mph    
Max Gust Speed 17 mph    
Visibility 10 miles    
Events      
T = Trace of Precipitation, MM = Missing Value Source: NWS Daily Summary

Daily Weather History Graph

Daily Weather History Graph

Search for Another Location

Airport or City:

Trip Planner

Search our weather history database for the weather conditions in past years. The results will help you decide how hot, cold, wet, or windy it might be!

Date:

Astronomy

Aug. 04, 2014 Rise Set
Actual Time 5:39 AM PDT 8:25 PM PDT
Civil Twilight 5:04 AM PDT 9:00 PM PDT
Nautical Twilight 4:19 AM PDT 9:45 PM PDT
Astronomical Twilight 3:26 AM PDT 10:37 PM PDT
Moon 2:42 PM PDT (8/4) No Moon Set
Length of Visible Light 15h 56m
Length of Day
14h 46m
First Quarter, 58% of the Moon is Illuminated
Aug 4
First Quarter
Aug 10
Full
Aug 17
Last Quarter
Aug 25
New
Sep 2
First Quarter

Hourly Weather History & Observations

Time (PDT) Temp. Dew Point Humidity Pressure Visibility Wind Dir Wind Speed Gust Speed Precip Events Conditions
12:52 AM 73.0 °F 48.9 °F 42% 29.87 in 10.0 mi North 6.9 mph - N/A   Clear
1:52 AM 69.8 °F 48.2 °F 46% 29.90 in 10.0 mi NNW 8.1 mph - N/A   Clear
2:52 AM 69.8 °F 48.2 °F 46% 29.90 in 10.0 mi NE 5.8 mph - N/A   Clear
3:52 AM 69.1 °F 48.0 °F 47% 29.87 in 10.0 mi North 3.5 mph - N/A   Clear
4:52 AM 64.9 °F 48.0 °F 54% 29.88 in 10.0 mi North 5.8 mph - N/A   Clear
5:52 AM 64.9 °F 45.0 °F 48% 29.89 in 10.0 mi North 8.1 mph - N/A   Clear
6:52 AM 69.1 °F 45.0 °F 42% 29.91 in 10.0 mi North 5.8 mph - N/A   Clear
7:52 AM 77.0 °F 45.0 °F 32% 29.91 in 10.0 mi North 5.8 mph - N/A   Clear
8:52 AM 84.9 °F 46.9 °F 27% 29.91 in 10.0 mi North 11.5 mph - N/A   Clear
9:52 AM 90.0 °F 44.1 °F 20% 29.90 in 10.0 mi NNE 12.7 mph - N/A   Clear
10:52 AM 93.9 °F 44.1 °F 18% 29.89 in 10.0 mi NE 6.9 mph - N/A   Clear
11:52 AM 96.1 °F 44.1 °F 17% 29.87 in 10.0 mi Variable 3.5 mph - N/A   Clear
12:52 PM 97.0 °F 42.1 °F 15% 29.86 in 10.0 mi Variable 3.5 mph - N/A   Clear
1:52 PM 98.6 °F 39.2 °F 13% 29.88 in 10.0 mi SSW 6.9 mph - N/A   Clear
2:52 PM 100.9 °F 44.1 °F 14% 29.83 in 10.0 mi SSW 8.1 mph - N/A   Clear
3:52 PM 100.9 °F 37.0 °F 11% 29.81 in 10.0 mi WSW 11.5 mph - N/A   Clear
4:52 PM 100.9 °F 34.0 °F 10% 29.79 in 10.0 mi WSW 9.2 mph - N/A   Clear
5:52 PM 100.0 °F 35.1 °F 10% 29.78 in 10.0 mi Variable 4.6 mph - N/A   Clear
6:52 PM 99.0 °F 33.1 °F 10% 29.77 in 10.0 mi Variable 3.5 mph - N/A   Clear
7:52 PM 97.0 °F 37.0 °F 12% 29.76 in 10.0 mi South 4.6 mph - N/A   Clear
8:52 PM 93.0 °F 39.9 °F 16% 29.77 in 10.0 mi Calm Calm - N/A   Clear
9:52 PM 87.1 °F 39.9 °F 19% 29.79 in 10.0 mi WNW 8.1 mph - N/A   Clear
10:52 PM 82.0 °F 35.1 °F 18% 29.79 in 10.0 mi NNW 9.2 mph - N/A   Clear
11:52 PM 80.1 °F 35.1 °F 20% 29.80 in 10.0 mi NNW 5.8 mph - N/A   Clear